When you browse on this site, cookies collect data to enhance your experience and personalize the content and advertising you see.
Visit our Privacy Policy to learn more. By continuing to use the site, you agree to this use of cookies and data.
  • în România
  • Lista ţărilor
  • Pe 7 zile
  • Temperatura apei
  • Hartă satelitară
  • Meteo pe hartă
  • Widget-uri
  • user-avatar
    Intrare

    Meteo pe oră la Ajuterique

    Astăzi, 21 Iulie, Duminică

    Timp Temperatura Precipitaţii Vânt Presiune Umiditate
    00:00 +22°C° 0 mm 1 m/s 698 mmHg 95%
    01:00 +22°C° 0 mm 1 m/s 698 mmHg 95%
    02:00 +22°C° 0 mm 1 m/s 698 mmHg 96%
    03:00 +22°C° 0 mm 1 m/s 697 mmHg 97%
    04:00 +22°C° 0 mm 1 m/s 697 mmHg 97%
    05:00 +22°C° 0 mm 1 m/s 697 mmHg 97%
    06:00 +22°C° 0 mm 1 m/s 698 mmHg 97%
    07:00 +24°C° 0 mm 1 m/s 698 mmHg 88%
    08:00 +26°C° 0 mm 2 m/s 699 mmHg 78%
    09:00 +28°C° 0 mm 2 m/s 699 mmHg 69%
    10:00 +30°C° 0 mm 2 m/s 699 mmHg 61%
    11:00 +31°C° 0 mm 2 m/s 699 mmHg 53%
    12:00 +34°C° 0 mm 3 m/s 699 mmHg 46%
    13:00 +34°C° 0 mm 3 m/s 698 mmHg 43%
    14:00 +35°C° 0 mm 3 m/s 698 mmHg 41%
    15:00 +35°C° 0 mm 3 m/s 697 mmHg 39%
    16:00 +32°C° 0.1 mm 2 m/s 697 mmHg 46%
    17:00 +30°C° 0.1 mm 2 m/s 697 mmHg 53%
    18:00 +28°C° 0.1 mm 1 m/s 697 mmHg 61%
    19:00 +26°C° 0 mm 1 m/s 697 mmHg 65%
    20:00 +25°C° 0 mm 1 m/s 698 mmHg 70%
    21:00 +23°C° 0 mm 1 m/s 698 mmHg 75%
    22:00 +23°C° 0 mm 1 m/s 698 mmHg 79%
    23:00 +23°C° 0 mm 1 m/s 698 mmHg 83%

    Mâine, 22 Iulie, Luni

    Timp Temperatura Precipitaţii Vânt Presiune Umiditate
    00:00 +22°C° 0 mm 1 m/s 698 mmHg 87%
    01:00 +22°C° 0 mm 1 m/s 698 mmHg 90%
    02:00 +22°C° 0 mm 1 m/s 698 mmHg 93%
    03:00 +22°C° 0 mm 1 m/s 698 mmHg 96%
    04:00 +22°C° 0 mm 1 m/s 698 mmHg 96%
    05:00 +20°C° 0 mm 0 m/s 698 mmHg 96%
    06:00 +20°C° 0 mm 0 m/s 698 mmHg 96%
    07:00 +24°C° 0 mm 1 m/s 698 mmHg 83%
    08:00 +26°C° 0 mm 1 m/s 699 mmHg 71%
    09:00 +29°C° 0 mm 1 m/s 700 mmHg 58%
    10:00 +30°C° 0 mm 1 m/s 700 mmHg 52%
    11:00 +31°C° 0 mm 2 m/s 700 mmHg 45%
    12:00 +34°C° 0 mm 2 m/s 700 mmHg 38%
    13:00 +34°C° 0 mm 2 m/s 699 mmHg 38%
    14:00 +34°C° 0 mm 2 m/s 698 mmHg 37%
    15:00 +35°C° 0 mm 2 m/s 698 mmHg 36%
    16:00 +31°C° 0 mm 2 m/s 698 mmHg 45%
    17:00 +29°C° 0 mm 1 m/s 698 mmHg 53%
    18:00 +27°C° 0 mm 1 m/s 698 mmHg 61%
    19:00 +26°C° 0 mm 1 m/s 698 mmHg 66%
    20:00 +25°C° 0 mm 1 m/s 699 mmHg 70%
    21:00 +23°C° 0 mm 1 m/s 699 mmHg 75%
    22:00 +23°C° 0 mm 1 m/s 699 mmHg 77%
    23:00 +21°C° 0 mm 0 m/s 699 mmHg 80%

    Poimâine, 23 Iulie, Marţi

    Timp Temperatura Precipitaţii Vânt Presiune Umiditate
    00:00 +20°C° 0 mm 0 m/s 699 mmHg 82%
    01:00 +20°C° 0 mm 0 m/s 699 mmHg 84%
    02:00 +20°C° 0 mm 0 m/s 698 mmHg 86%
    03:00 +19°C° 0 mm 0 m/s 698 mmHg 89%
    04:00 +19°C° 0 mm 0 m/s 698 mmHg 89%
    05:00 +19°C° 0 mm 0 m/s 698 mmHg 89%
    06:00 +19°C° 0 mm 0 m/s 698 mmHg 89%
    07:00 +24°C° 0 mm 1 m/s 699 mmHg 77%
    08:00 +27°C° 0 mm 1 m/s 700 mmHg 65%
    09:00 +30°C° 0 mm 1 m/s 701 mmHg 52%
    10:00 +31°C° 0 mm 1 m/s 700 mmHg 47%
    11:00 +32°C° 0 mm 2 m/s 700 mmHg 41%
    12:00 +35°C° 0 mm 2 m/s 700 mmHg 35%
    13:00 +35°C° 0 mm 2 m/s 699 mmHg 35%
    14:00 +35°C° 0 mm 2 m/s 699 mmHg 35%
    15:00 +35°C° 0 mm 2 m/s 698 mmHg 35%
    16:00 +32°C° 0 mm 2 m/s 698 mmHg 46%
    17:00 +30°C° 0 mm 1 m/s 698 mmHg 56%
    18:00 +27°C° 0 mm 1 m/s 698 mmHg 67%
    19:00 +26°C° 0.1 mm 1 m/s 698 mmHg 73%
    20:00 +24°C° 0.1 mm 1 m/s 699 mmHg 80%
    21:00 +23°C° 0.1 mm 1 m/s 699 mmHg 86%
    22:00 +21°C° 0 mm 0 m/s 699 mmHg 87%
    23:00 +20°C° 0 mm 0 m/s 699 mmHg 88%

    24 Iulie, Miercuri

    Timp Temperatura Precipitaţii Vânt Presiune Umiditate
    00:00 +20°C° 0 mm 0 m/s 699 mmHg 89%
    01:00 +20°C° 0 mm 0 m/s 699 mmHg 91%
    02:00 +20°C° 0 mm 0 m/s 698 mmHg 92%
    03:00 +19°C° 0 mm 0 m/s 698 mmHg 93%
    04:00 +19°C° 0 mm 0 m/s 698 mmHg 94%
    05:00 +21°C° 0 mm 1 m/s 698 mmHg 94%
    06:00 +21°C° 0 mm 1 m/s 698 mmHg 94%
    07:00 +24°C° 0 mm 1 m/s 699 mmHg 85%
    08:00 +26°C° 0 mm 1 m/s 700 mmHg 75%
    09:00 +29°C° 0 mm 2 m/s 700 mmHg 65%
    10:00 +30°C° 0 mm 2 m/s 700 mmHg 58%
    11:00 +32°C° 0 mm 2 m/s 700 mmHg 50%
    12:00 +34°C° 0 mm 2 m/s 700 mmHg 43%
    13:00 +34°C° 0 mm 2 m/s 699 mmHg 42%
    14:00 +34°C° 0 mm 2 m/s 698 mmHg 42%
    15:00 +34°C° 0 mm 2 m/s 698 mmHg 41%
    16:00 +31°C° 0.1 mm 2 m/s 698 mmHg 51%
    17:00 +29°C° 0.1 mm 2 m/s 697 mmHg 61%
    18:00 +27°C° 0.1 mm 1 m/s 697 mmHg 72%
    19:00 +26°C° 0.2 mm 1 m/s 698 mmHg 79%
    20:00 +24°C° 0.2 mm 1 m/s 698 mmHg 86%
    21:00 +23°C° 0.2 mm 1 m/s 699 mmHg 93%
    22:00 +23°C° 0 mm 1 m/s 698 mmHg 94%
    23:00 +22°C° 0 mm 1 m/s 698 mmHg 96%

    25 Iulie, Joi

    Timp Temperatura Precipitaţii Vânt Presiune Umiditate
    00:00 +22°C° 0 mm 1 m/s 698 mmHg 97%
    01:00 +22°C° 0.2 mm 1 m/s 698 mmHg 97%
    02:00 +22°C° 0.2 mm 1 m/s 697 mmHg 97%
    03:00 +22°C° 0.2 mm 1 m/s 697 mmHg 97%
    04:00 +22°C° 0.8 mm 1 m/s 697 mmHg 97%
    05:00 +20°C° 0.8 mm 0 m/s 698 mmHg 97%
    06:00 +20°C° 0.8 mm 0 m/s 698 mmHg 97%
    07:00 +24°C° 0.2 mm 1 m/s 698 mmHg 90%
    08:00 +26°C° 0.2 mm 1 m/s 699 mmHg 83%
    09:00 +27°C° 0.2 mm 1 m/s 700 mmHg 75%
    10:00 +29°C° 0 mm 2 m/s 699 mmHg 66%
    11:00 +31°C° 0 mm 2 m/s 699 mmHg 57%
    12:00 +32°C° 0 mm 2 m/s 699 mmHg 48%
    13:00 +32°C° 0.4 mm 2 m/s 699 mmHg 49%
    14:00 +32°C° 0.4 mm 2 m/s 698 mmHg 49%
    15:00 +33°C° 0.4 mm 3 m/s 698 mmHg 50%
    16:00 +30°C° 0.2 mm 2 m/s 698 mmHg 56%
    17:00 +29°C° 0.2 mm 2 m/s 698 mmHg 61%
    18:00 +27°C° 0.2 mm 2 m/s 698 mmHg 67%
    19:00 +25°C° 0 mm 1 m/s 698 mmHg 71%
    20:00 +24°C° 0 mm 1 m/s 698 mmHg 76%
    21:00 +20°C° 0 mm 0 m/s 699 mmHg 80%
    22:00 +22°C° 0 mm 1 m/s 699 mmHg 84%
    23:00 +21°C° 0 mm 1 m/s 699 mmHg 88%

    26 Iulie, Vineri

    Timp Temperatura Precipitaţii Vânt Presiune Umiditate
    00:00 +21°C° 0 mm 1 m/s 698 mmHg 91%
    01:00 +21°C° 0 mm 1 m/s 698 mmHg 92%
    02:00 +21°C° 0 mm 1 m/s 698 mmHg 93%
    03:00 +20°C° 0 mm 1 m/s 697 mmHg 94%
    04:00 +20°C° 0 mm 1 m/s 698 mmHg 93%
    05:00 +20°C° 0 mm 1 m/s 698 mmHg 93%
    06:00 +20°C° 0 mm 1 m/s 698 mmHg 92%
    07:00 +23°C° 0 mm 1 m/s 699 mmHg 79%
    08:00 +26°C° 0 mm 2 m/s 699 mmHg 65%
    09:00 +28°C° 0 mm 2 m/s 700 mmHg 52%
    10:00 +29°C° 0 mm 3 m/s 700 mmHg 47%
    11:00 +30°C° 0 mm 3 m/s 700 mmHg 42%
    12:00 +33°C° 0 mm 4 m/s 700 mmHg 37%
    13:00 +33°C° 0 mm 4 m/s 699 mmHg 38%
    14:00 +33°C° 0 mm 4 m/s 699 mmHg 39%
    15:00 +33°C° 0 mm 4 m/s 698 mmHg 39%
    16:00 +30°C° 0.1 mm 3 m/s 698 mmHg 50%
    17:00 +28°C° 0.1 mm 2 m/s 698 mmHg 61%
    18:00 +26°C° 0.1 mm 1 m/s 698 mmHg 72%
    19:00 +25°C° 0.1 mm 1 m/s 699 mmHg 77%
    20:00 +23°C° 0.1 mm 1 m/s 699 mmHg 81%
    21:00 +22°C° 0.1 mm 1 m/s 699 mmHg 85%
    22:00 +22°C° 0 mm 1 m/s 699 mmHg 87%
    23:00 +22°C° 0 mm 1 m/s 699 mmHg 89%
    Arată mai mult